Monterey, CA

8:46 AM PST on January 18, 2018 (GMT -0800)
Monterey Peninsula

Weather History for KMRY - March, 2013

Change the Weather History Date:

Friday, March 15, 2013

  Actual Average Record
Temperature  
Mean Temperature 54 °F 53 °F  
Max Temperature 63 °F 61 °F 71 °F (2005)
Min Temperature 45 °F 46 °F 42 °F (1999)
Degree Days  
Heating Degree Days 11    
Month to date heating degree days 201  
Since 1 July heating degree days 2467  
Cooling Degree Days 0    
Month to date cooling degree days 0  
Year to date cooling degree days 0  
Growing Degree Days 4 (Base 50)    
Moisture  
Dew Point 47 °F    
Average Humidity 89    
Maximum Humidity 100    
Minimum Humidity 77    
Precipitation  
Precipitation 0.00 in - 0.55 in (2003)
Month to date precipitation 0.70  
Year to date precipitation 2.28  
Since 1 July precipitation 10.52  
Sea Level Pressure  
Sea Level Pressure 30.13 in    
Wind  
Wind Speed 5 mph (SW)    
Max Wind Speed 13 mph    
Max Gust Speed 29 mph    
Visibility 8 miles    
Events Fog    
T = Trace of Precipitation, MM = Missing Value Source: NWS Daily Summary

Daily Weather History Graph

Daily Weather History Graph

Search for Another Location

Airport or City:

Trip Planner

Search our weather history database for the weather conditions in past years. The results will help you decide how hot, cold, wet, or windy it might be!

Date:

Astronomy

Mar. 15, 2013 Rise Set
Actual Time 7:17 AM PDT 7:15 PM PDT
Civil Twilight 6:52 AM PDT 7:40 PM PDT
Nautical Twilight 6:22 AM PDT 8:10 PM PDT
Astronomical Twilight 5:51 AM PDT 8:41 PM PDT
Moon 9:18 AM PDT (3/15) 11:26 PM PDT (3/15)
Length of Visible Light 12h 48m
Length of Day
11h 57m
Waxing Crescent, 16% of the Moon is Illuminated
Mar 15
Waxing Crescent
Mar 19
First Quarter
Mar 27
Full
Apr 2
Last Quarter
Apr 10
New

Hourly Weather History & Observations

Time (PDT) Temp. Windchill Dew Point Humidity Pressure Visibility Wind Dir Wind Speed Gust Speed Precip Events Conditions
12:54 AM 52.0 °F - 45.0 °F 77% 30.16 in 10.0 mi SE 3.5 mph - N/A   Clear
1:54 AM 46.9 °F - 42.1 °F 83% 30.15 in 10.0 mi Calm Calm - N/A   Clear
2:32 AM 48.2 °F - 44.6 °F 87% 30.14 in 10.0 mi SW 6.9 mph - N/A   Scattered Clouds
2:41 AM 50.0 °F - 46.4 °F 87% 30.14 in 10.0 mi SW 6.9 mph - N/A   Mostly Cloudy
2:54 AM 50.0 °F - 46.9 °F 89% 30.18 in 9.0 mi SW 3.5 mph - N/A   Scattered Clouds
3:54 AM 48.0 °F - 45.0 °F 89% 30.17 in 10.0 mi SSE 3.5 mph - N/A   Partly Cloudy
4:54 AM 46.9 °F - 45.0 °F 93% 30.17 in 10.0 mi SSW 4.6 mph - N/A   Partly Cloudy
5:06 AM 48.2 °F - 46.4 °F 93% 30.12 in 10.0 mi SSW 4.6 mph - N/A   Mostly Cloudy
5:36 AM 48.2 °F - 46.4 °F 93% 30.11 in 10.0 mi Calm Calm - N/A   Scattered Clouds
5:54 AM 46.9 °F - 45.0 °F 93% 30.15 in 10.0 mi Calm Calm - N/A   Clear
6:04 AM 46.4 °F - 44.6 °F 93% 30.11 in 10.0 mi Calm Calm - N/A   Partly Cloudy
6:17 AM 48.2 °F - 44.6 °F 87% 30.12 in 9.0 mi SSW 3.5 mph - N/A   Mostly Cloudy
6:54 AM 46.0 °F 42.5 °F 44.1 °F 93% 30.14 in 9.0 mi East 6.9 mph - N/A   Overcast
7:12 AM 48.2 °F - 46.4 °F 93% 30.10 in 0.5 mi SSE 3.5 mph - N/A Fog Fog
7:20 AM 46.4 °F 45.2 °F 46.4 °F 100% 30.10 in 0.2 mi ESE 3.5 mph - N/A Fog Fog
7:33 AM 46.4 °F - 46.4 °F 100% 30.10 in 0.2 mi Calm Calm - N/A Fog Fog
7:41 AM 46.4 °F - 46.4 °F 100% 30.11 in 0.2 mi Calm Calm - N/A Fog Fog
7:54 AM 46.9 °F - 46.9 °F 100% 30.15 in 0.2 mi Calm Calm - N/A Fog Fog
8:07 AM 48.2 °F - 46.4 °F 93% 30.11 in 0.5 mi Calm Calm - N/A Fog Fog
8:13 AM 48.2 °F - 48.2 °F 100% 30.11 in 3.0 mi Calm Calm - N/A   Mostly Cloudy
8:29 AM 48.2 °F - 48.2 °F 100% 30.12 in 6.0 mi Calm Calm - N/A   Scattered Clouds
8:54 AM 48.9 °F - 48.0 °F 97% 30.15 in 9.0 mi East 4.6 mph - N/A   Mostly Cloudy
9:30 AM 50.0 °F - 48.2 °F 94% 30.12 in 6.0 mi Calm Calm - N/A   Mostly Cloudy
9:47 AM 51.8 °F - 48.2 °F 88% 30.12 in 7.0 mi Calm Calm - N/A   Scattered Clouds
9:54 AM 53.1 °F - 48.9 °F 86% 30.17 in 7.0 mi West 4.6 mph - N/A   Scattered Clouds
10:54 AM 55.9 °F - 48.0 °F 75% 30.16 in 10.0 mi West 4.6 mph - N/A   Clear
11:54 AM 55.0 °F - 48.9 °F 80% 30.15 in 10.0 mi NW 4.6 mph - N/A   Clear
12:54 PM 55.9 °F - 48.0 °F 75% 30.14 in 10.0 mi NW 3.5 mph - N/A   Clear
1:54 PM 62.1 °F - 48.9 °F 62% 30.12 in 10.0 mi Calm Calm - N/A   Clear
2:54 PM 59.0 °F - 48.9 °F 69% 30.12 in 10.0 mi West 9.2 mph - N/A   Clear
3:54 PM 57.9 °F - 48.9 °F 72% 30.13 in 10.0 mi West 9.2 mph - N/A   Clear
4:54 PM 61.0 °F - 46.0 °F 58% 30.13 in 10.0 mi NW 6.9 mph - N/A   Clear
5:54 PM 61.0 °F - 46.0 °F 58% 30.12 in 10.0 mi WSW 11.5 mph - N/A   Clear
6:54 PM 55.9 °F - 48.0 °F 75% 30.14 in 10.0 mi SW 4.6 mph - N/A   Clear
7:54 PM 54.0 °F - 48.0 °F 80% 30.13 in 10.0 mi Calm Calm - N/A   Clear
8:54 PM 54.0 °F - 48.0 °F 80% 30.11 in 10.0 mi SSE 3.5 mph - N/A   Clear
9:54 PM 53.1 °F - 48.0 °F 83% 30.13 in 10.0 mi Calm Calm - N/A   Clear
10:51 PM 51.8 °F - 48.2 °F 88% 30.13 in 10.0 mi WSW 8.1 mph - N/A   Mostly Cloudy
10:54 PM 52.0 °F - 48.9 °F 89% 30.17 in 10.0 mi Variable 6.9 mph - N/A   Mostly Cloudy
11:54 PM 51.1 °F - 48.9 °F 92% 30.16 in 10.0 mi SW 5.8 mph - N/A   Overcast